CRL45 LFPO-LFRS

Flight info

Callsign CRL45
Flight time 0h 46m
Altitude 27000
Route LGL UT176 ROLEN UZ15 ARDOD A5 VALAX
Aircraft A339/H-SADE1E2E3GHIJ3J5M1P2RWXY/LB2D1

Departure

Time 2026-05-05 18:13
Airport Paris-Orly Airport (LFPO)

Arrival

Time 2026-05-05 19:00
Airport Nantes Atlantique Airport (LFRS)
Time Latitude Longitude Altitude Speed Heading
2026-05-05 17:43 48.72627 2.36388 300 ft 0 kts 344°
2026-05-05 18:04 48.72609 2.36396 303 ft 4 kts 347°
2026-05-05 18:04 48.72584 2.36404 301 ft 4 kts 334°
2026-05-05 18:05 48.72566 2.36419 302 ft 4 kts 312°
2026-05-05 18:05 48.72552 2.36445 301 ft 4 kts 276°
2026-05-05 18:05 48.72552 2.36483 301 ft 4 kts 255°
2026-05-05 18:05 48.72555 2.36498 300 ft 1 kts 255°
2026-05-05 18:09 48.72550 2.36470 304 ft 9 kts 255°
2026-05-05 18:09 48.72527 2.36335 303 ft 14 kts 255°
2026-05-05 18:09 48.72491 2.36228 304 ft 7 kts 212°
2026-05-05 18:10 48.72455 2.36231 302 ft 5 kts 176°
2026-05-05 18:10 48.72420 2.36215 303 ft 5 kts 216°
2026-05-05 18:10 48.72410 2.36169 302 ft 5 kts 253°
2026-05-05 18:10 48.72394 2.36086 301 ft 12 kts 253°
2026-05-05 18:11 48.72368 2.35949 301 ft 14 kts 254°
2026-05-05 18:11 48.72341 2.35804 303 ft 14 kts 257°
2026-05-05 18:11 48.72315 2.35655 303 ft 14 kts 246°
2026-05-05 18:11 48.72252 2.35604 303 ft 10 kts 191°
2026-05-05 18:12 48.72185 2.35619 302 ft 10 kts 167°
2026-05-05 18:12 48.72114 2.35651 303 ft 11 kts 161°
2026-05-05 18:12 48.72050 2.35719 302 ft 11 kts 133°
2026-05-05 18:12 48.72001 2.35819 303 ft 12 kts 123°
2026-05-05 18:13 48.71959 2.35922 303 ft 4 kts 114°
2026-05-05 18:13 48.71972 2.36017 303 ft 35 kts 74°
2026-05-05 18:13 48.72145 2.36938 303 ft 142 kts 75°
2026-05-05 18:13 48.72443 2.38629 959 ft 170 kts 71°
2026-05-05 18:14 48.72781 2.40416 2105 ft 181 kts 71°
2026-05-05 18:14 48.73116 2.42288 3174 ft 186 kts 72°
2026-05-05 18:14 48.73438 2.44232 4229 ft 196 kts 74°
2026-05-05 18:14 48.73809 2.46360 4840 ft 227 kts 73°
2026-05-05 18:15 48.74158 2.48869 5395 ft 253 kts 83°
2026-05-05 18:15 48.74239 2.51583 6113 ft 266 kts 86°
2026-05-05 18:15 48.74289 2.54419 7007 ft 270 kts 86°
2026-05-05 18:15 48.74232 2.57269 7902 ft 276 kts 98°
2026-05-05 18:16 48.73496 2.59941 8913 ft 282 kts 123°
2026-05-05 18:16 48.72059 2.61976 9914 ft 283 kts 151°
2026-05-05 18:16 48.70201 2.62929 10761 ft 290 kts 173°
2026-05-05 18:16 48.68131 2.62716 11117 ft 310 kts 196°
2026-05-05 18:17 48.66225 2.61280 11469 ft 328 kts 217°
2026-05-05 18:17 48.64751 2.58843 11835 ft 345 kts 237°
2026-05-05 18:17 48.63872 2.55426 12470 ft 353 kts 260°
2026-05-05 18:17 48.63886 2.51730 13359 ft 355 kts 280°
2026-05-05 18:18 48.64664 2.48181 14154 ft 357 kts 292°
2026-05-05 18:18 48.65570 2.44636 14766 ft 363 kts 288°
2026-05-05 18:18 48.65983 2.40892 15517 ft 363 kts 270°
2026-05-05 18:18 48.65651 2.37109 16238 ft 365 kts 255°
2026-05-05 18:19 48.64762 2.33502 16943 ft 368 kts 247°
2026-05-05 18:19 48.63799 2.29945 17631 ft 371 kts 249°
2026-05-05 18:19 48.63174 2.26136 18319 ft 375 kts 262°
2026-05-05 18:19 48.63110 2.22169 18901 ft 381 kts 275°
2026-05-05 18:20 48.63522 2.18171 19409 ft 388 kts 279°
2026-05-05 18:20 48.63958 2.14120 20078 ft 390 kts 279°
2026-05-05 18:20 48.64376 2.10042 20763 ft 393 kts 279°
2026-05-05 18:20 48.64785 2.05961 21329 ft 399 kts 279°
2026-05-05 18:21 48.65199 2.01796 22009 ft 402 kts 279°
2026-05-05 18:21 48.65589 1.97860 22548 ft 407 kts 279°
2026-05-05 18:21 48.66011 1.93599 23256 ft 410 kts 279°
2026-05-05 18:21 48.66433 1.89325 23771 ft 415 kts 279°
2026-05-05 18:22 48.66862 1.84981 24318 ft 418 kts 279°
2026-05-05 18:22 48.67293 1.80595 24805 ft 424 kts 279°
2026-05-05 18:22 48.67728 1.76153 25323 ft 428 kts 279°
2026-05-05 18:22 48.68165 1.71677 25785 ft 434 kts 279°
2026-05-05 18:23 48.68606 1.67135 26315 ft 437 kts 279°
2026-05-05 18:23 48.69048 1.62558 26700 ft 441 kts 279°
2026-05-05 18:23 48.69492 1.57954 26821 ft 443 kts 279°
2026-05-05 18:23 48.69941 1.53270 26835 ft 456 kts 279°
2026-05-05 18:24 48.70395 1.48508 26834 ft 455 kts 278°
2026-05-05 18:24 48.70845 1.43763 26834 ft 456 kts 278°
2026-05-05 18:24 48.71293 1.39015 26845 ft 456 kts 278°
2026-05-05 18:24 48.71740 1.34258 26846 ft 456 kts 278°
2026-05-05 18:25 48.72185 1.29506 26846 ft 456 kts 278°
2026-05-05 18:25 48.72477 1.26372 26844 ft 456 kts 278°
2026-05-05 18:25 48.73068 1.19999 26854 ft 456 kts 278°
2026-05-05 18:25 48.73508 1.15242 26853 ft 456 kts 278°
2026-05-05 18:26 48.73945 1.10484 26854 ft 456 kts 278°
2026-05-05 18:26 48.74376 1.05782 26852 ft 456 kts 278°
2026-05-05 18:26 48.74810 1.01020 26865 ft 456 kts 278°
2026-05-05 18:26 48.75241 0.96270 26867 ft 456 kts 278°
2026-05-05 18:27 48.75671 0.91505 26864 ft 456 kts 278°
2026-05-05 18:27 48.76099 0.86734 26868 ft 456 kts 278°
2026-05-05 18:27 48.76525 0.81974 26870 ft 456 kts 278°
2026-05-05 18:27 48.76948 0.77220 26870 ft 456 kts 278°
2026-05-05 18:28 48.77790 0.67683 26874 ft 456 kts 278°
2026-05-05 18:28 48.78208 0.62915 26873 ft 456 kts 278°
2026-05-05 18:28 48.78414 0.58137 26874 ft 457 kts 268°
2026-05-05 18:29 48.77968 0.53369 26877 ft 457 kts 256°
2026-05-05 18:29 48.76874 0.48869 26877 ft 456 kts 243°
2026-05-05 18:29 48.75284 0.45030 26875 ft 455 kts 231°
2026-05-05 18:29 48.73195 0.41456 26876 ft 453 kts 225°
2026-05-05 18:30 48.71004 0.38036 26877 ft 453 kts 225°
2026-05-05 18:30 48.68840 0.34571 26884 ft 453 kts 226°
2026-05-05 18:30 48.66882 0.31298 26885 ft 454 kts 227°
2026-05-05 18:30 48.64760 0.27633 26891 ft 455 kts 228°
2026-05-05 18:31 48.62696 0.24010 26885 ft 457 kts 228°
2026-05-05 18:31 48.60629 0.20357 26884 ft 456 kts 229°
2026-05-05 18:31 48.58555 0.16737 26890 ft 455 kts 226°
2026-05-05 18:31 48.56273 0.13420 26892 ft 455 kts 219°
2026-05-05 18:32 48.53856 0.10363 26892 ft 455 kts 219°
2026-05-05 18:32 48.51420 0.07276 26892 ft 454 kts 219°
2026-05-05 18:32 48.48998 0.04197 26891 ft 455 kts 219°
2026-05-05 18:32 48.46577 0.01116 26892 ft 455 kts 219°
2026-05-05 18:33 48.44165 -0.01952 26894 ft 454 kts 219°
2026-05-05 18:33 48.41773 -0.04994 26898 ft 456 kts 219°
2026-05-05 18:33 48.39399 -0.08007 26892 ft 456 kts 219°
2026-05-05 18:33 48.36976 -0.11079 26892 ft 456 kts 219°
2026-05-05 18:34 48.34549 -0.14152 26892 ft 456 kts 219°
2026-05-05 18:34 48.32113 -0.17231 26892 ft 456 kts 219°
2026-05-05 18:34 48.29689 -0.20292 26892 ft 456 kts 219°
2026-05-05 18:34 48.27262 -0.23353 26892 ft 456 kts 219°
2026-05-05 18:35 48.24830 -0.26416 26893 ft 456 kts 219°
2026-05-05 18:35 48.22433 -0.29430 26892 ft 456 kts 219°
2026-05-05 18:35 48.19991 -0.32498 26888 ft 459 kts 218°
2026-05-05 18:35 48.17548 -0.35561 26890 ft 458 kts 218°
2026-05-05 18:36 48.15100 -0.38627 26888 ft 458 kts 218°
2026-05-05 18:36 48.12655 -0.41685 26887 ft 458 kts 218°
2026-05-05 18:36 48.10215 -0.44733 26885 ft 458 kts 218°
2026-05-05 18:36 48.07761 -0.47795 26886 ft 458 kts 218°
2026-05-05 18:37 48.05313 -0.50845 26885 ft 458 kts 218°
2026-05-05 18:37 48.02859 -0.53898 26886 ft 458 kts 218°
2026-05-05 18:37 48.00410 -0.56941 26892 ft 459 kts 218°
2026-05-05 18:37 47.97975 -0.59964 26888 ft 460 kts 218°
2026-05-05 18:38 47.95511 -0.63018 26872 ft 460 kts 218°
2026-05-05 18:38 47.93057 -0.66057 26889 ft 460 kts 218°
2026-05-05 18:38 47.90594 -0.69102 26861 ft 460 kts 218°
2026-05-05 18:38 47.88133 -0.72141 26672 ft 455 kts 218°
2026-05-05 18:39 47.85702 -0.75139 26058 ft 452 kts 218°
2026-05-05 18:39 47.83291 -0.78106 25377 ft 448 kts 218°
2026-05-05 18:39 47.80907 -0.81037 24591 ft 441 kts 219°
2026-05-05 18:39 47.78554 -0.83925 23705 ft 437 kts 219°
2026-05-05 18:40 47.76229 -0.86777 22802 ft 433 kts 219°
2026-05-05 18:40 47.74705 -0.88647 22260 ft 426 kts 219°
2026-05-05 18:40 47.71716 -0.92310 21173 ft 416 kts 219°
2026-05-05 18:40 47.69494 -0.95020 20252 ft 411 kts 219°
2026-05-05 18:41 47.68040 -0.96788 19699 ft 406 kts 219°
2026-05-05 18:41 47.65883 -0.99407 19036 ft 394 kts 219°
2026-05-05 18:41 47.63786 -1.01952 18279 ft 385 kts 219°
2026-05-05 18:41 47.61732 -1.04441 17356 ft 378 kts 219°
2026-05-05 18:42 47.59702 -1.06899 16318 ft 374 kts 219°
2026-05-05 18:42 47.57693 -1.09327 15374 ft 369 kts 220°
2026-05-05 18:42 47.55725 -1.11703 14491 ft 363 kts 220°
2026-05-05 18:42 47.53850 -1.14038 13921 ft 350 kts 221°
2026-05-05 18:43 47.52063 -1.16315 13694 ft 328 kts 221°
2026-05-05 18:43 47.50401 -1.18433 13508 ft 306 kts 221°
2026-05-05 18:43 47.48840 -1.20415 13284 ft 286 kts 222°
2026-05-05 18:43 47.47389 -1.22251 13123 ft 266 kts 222°
2026-05-05 18:44 47.46041 -1.23951 12838 ft 251 kts 222°
2026-05-05 18:44 47.44724 -1.25616 12226 ft 251 kts 222°
2026-05-05 18:44 47.43391 -1.27292 11678 ft 250 kts 222°
2026-05-05 18:44 47.42072 -1.28947 11150 ft 248 kts 222°
2026-05-05 18:45 47.40761 -1.30586 10654 ft 246 kts 222°
2026-05-05 18:45 47.39464 -1.32211 10167 ft 243 kts 222°
2026-05-05 18:45 47.38183 -1.33814 9691 ft 241 kts 223°
2026-05-05 18:45 47.36909 -1.35408 9110 ft 242 kts 222°
2026-05-05 18:46 47.35627 -1.37013 8598 ft 240 kts 223°
2026-05-05 18:46 47.34364 -1.38585 8107 ft 240 kts 222°
2026-05-05 18:46 47.33102 -1.40157 7588 ft 240 kts 223°
2026-05-05 18:46 47.31823 -1.41751 7091 ft 240 kts 222°
2026-05-05 18:47 47.30566 -1.43328 6669 ft 237 kts 223°
2026-05-05 18:47 47.29305 -1.44899 6203 ft 236 kts 222°
2026-05-05 18:47 47.28059 -1.46452 5761 ft 234 kts 222°
2026-05-05 18:47 47.26805 -1.48004 5262 ft 237 kts 222°
2026-05-05 18:48 47.25551 -1.49563 4880 ft 234 kts 222°
2026-05-05 18:48 47.24302 -1.51119 4360 ft 237 kts 222°
2026-05-05 18:48 47.23055 -1.52685 3928 ft 236 kts 222°
2026-05-05 18:48 47.21815 -1.54246 3595 ft 232 kts 221°
2026-05-05 18:49 47.20576 -1.55773 3193 ft 232 kts 220°
2026-05-05 18:49 47.19339 -1.57279 3018 ft 236 kts 221°
2026-05-05 18:49 47.18093 -1.58810 3003 ft 235 kts 221°
2026-05-05 18:49 47.17052 -1.60098 3004 ft 234 kts 221°
2026-05-05 18:50 47.15849 -1.61641 2996 ft 223 kts 228°
2026-05-05 18:50 47.14834 -1.63443 3000 ft 233 kts 235°
2026-05-05 18:50 47.13857 -1.65273 2993 ft 227 kts 234°
2026-05-05 18:50 47.12863 -1.67129 2999 ft 228 kts 234°
2026-05-05 18:51 47.11859 -1.68953 2999 ft 233 kts 234°
2026-05-05 18:51 47.10839 -1.70798 2994 ft 230 kts 233°
2026-05-05 18:51 47.09820 -1.72632 3001 ft 235 kts 233°
2026-05-05 18:51 47.08790 -1.74474 2999 ft 231 kts 233°
2026-05-05 18:52 47.07783 -1.76276 2999 ft 234 kts 233°
2026-05-05 18:52 47.06761 -1.78115 2994 ft 229 kts 233°
2026-05-05 18:52 47.05752 -1.79935 3005 ft 232 kts 234°
2026-05-05 18:52 47.04731 -1.81774 3008 ft 232 kts 233°
2026-05-05 18:53 47.03722 -1.83593 3007 ft 230 kts 233°
2026-05-05 18:53 47.02556 -1.85232 3017 ft 234 kts 213°
2026-05-05 18:53 47.01004 -1.85926 3019 ft 234 kts 181°
2026-05-05 18:53 46.99449 -1.85438 3009 ft 227 kts 150°
2026-05-05 18:54 46.98167 -1.84110 3005 ft 225 kts 136°
2026-05-05 18:54 46.96973 -1.82610 3011 ft 226 kts 136°
2026-05-05 18:54 46.95747 -1.81205 3015 ft 227 kts 140°
2026-05-05 18:54 46.94527 -1.79711 3005 ft 229 kts 127°
2026-05-05 18:55 46.93753 -1.77760 2994 ft 225 kts 108°
2026-05-05 18:55 46.93672 -1.75567 3004 ft 217 kts 69°
2026-05-05 18:55 46.94526 -1.73867 3007 ft 207 kts 30°
2026-05-05 18:55 46.95892 -1.73265 3004 ft 205 kts
2026-05-05 18:56 46.97281 -1.72990 3002 ft 203 kts
2026-05-05 18:56 46.98681 -1.72687 3004 ft 204 kts
2026-05-05 18:56 47.00056 -1.72306 2999 ft 200 kts 13°
2026-05-05 18:56 47.01385 -1.71636 2931 ft 204 kts 22°
2026-05-05 18:57 47.02655 -1.70718 2666 ft 201 kts 28°
2026-05-05 18:57 47.03870 -1.69768 2390 ft 196 kts 25°
2026-05-05 18:57 47.05087 -1.68839 2112 ft 194 kts 26°
2026-05-05 18:57 47.06295 -1.67935 1846 ft 194 kts 26°
2026-05-05 18:58 47.07489 -1.67017 1581 ft 190 kts 25°
2026-05-05 18:58 47.08418 -1.66320 1385 ft 189 kts 26°
2026-05-05 18:58 47.09538 -1.65463 1118 ft 175 kts 25°
2026-05-05 18:58 47.10596 -1.64658 890 ft 168 kts 24°
2026-05-05 18:59 47.11569 -1.63925 680 ft 146 kts 25°
2026-05-05 18:59 47.12431 -1.63265 490 ft 136 kts 24°
2026-05-05 18:59 47.13234 -1.62641 325 ft 122 kts 26°
2026-05-05 18:59 47.14026 -1.62027 173 ft 129 kts 22°
2026-05-05 19:00 47.14794 -1.61491 106 ft 110 kts 26°
2026-05-05 19:00 47.15284 -1.61102 104 ft 52 kts 27°
2026-05-05 19:00 47.15471 -1.60965 108 ft 24 kts 26°
2026-05-05 19:00 47.15642 -1.60829 107 ft 8 kts 39°
2026-05-05 19:01 47.15670 -1.60739 106 ft 12 kts 90°
2026-05-05 19:01 47.15633 -1.60621 107 ft 14 kts 111°
2026-05-05 19:01 47.15666 -1.60533 106 ft 8 kts 19°
2026-05-05 19:01 47.15715 -1.60504 106 ft 5 kts 26°
2026-05-05 19:02 47.15725 -1.60496 106 ft 1 kts 26°
2026-05-05 19:02 47.15740 -1.60472 106 ft 3 kts 62°
2026-05-05 19:02 47.15731 -1.60439 106 ft 2 kts 121°
2026-05-05 19:02 47.15708 -1.60412 107 ft 6 kts 141°
2026-05-05 19:03 47.15664 -1.60352 106 ft 11 kts 137°
2026-05-05 19:03 47.15637 -1.60313 107 ft 6 kts 131°
2026-05-05 19:03 47.15629 -1.60285 107 ft 0 kts 113°
2026-05-05 19:03 47.15632 -1.60272 107 ft 1 kts 84°
2026-05-05 19:04 47.15639 -1.60265 107 ft 1 kts 51°
2026-05-05 19:04 47.15658 -1.60241 107 ft 1 kts 40°
2026-05-05 19:04 47.15670 -1.60230 107 ft 5 kts 37°
2026-05-05 19:04 47.15676 -1.60222 106 ft 0 kts 36°
2026-05-05 19:06 47.15676 -1.60223 106 ft 0 kts 36°